Weather in Río San Juan

Dominican Republic     19°38′49″N   70°04′12″W
temp.,
°C
wind,
m/s
gust,
m/s
humid.,
%
clouds,
%
prec.,
mm/h
press.,
hPa
HPBL,
m
16 june, wed
wed1623:00+27ese79869 0.0 1019678
02:00+27ese79865 0.3 1017752
05:00+26ese89845 0.3 1017804
08:00+27se710833 0.4 1017837
11:00+27ese610770 0.1 1018549
14:00+28e812795 0.1 1016434
17:00+28ese913791 0.0 1014471
20:00+27ese912835 0.0 1016657
17 june, thu
thu1723:00+27ese811855 0.1 1017701
02:00+27ese68845 0.5 1016729
05:00+27ese79825 0.4 1016799
08:00+27se810845 0.5 1017800
11:00+27ese8118430 0.1 1017801
14:00+27e911855 0.1 1016670
17:00+27e9128716 0.0 1014622
20:00+27e911875 0.0 1016672
18 june, fri
fri1823:00+27ese810855 0.4 1017706
02:00+27ese79835 0.9 1017676
05:00+27ese79845 0.3 1017689
08:00+26se568346 0.4 1018384
11:00+27ese8108199 0.0 1018592
14:00+27ese9118151 0.0 1017720
17:00+27ese8108129 0.0 1016587
20:00+27se7108214 0.1 1017490
19 june, sat
sat1923:00+27se69815 0.1 1019585
02:00+26se688488 0.1 1017549
05:00+25se568534 0.0 1017423
08:00+26se588614 0.0 1019501
11:00+27ese71083100 0.0 1019649
14:00+27e91086100 0.0 1018596
17:00+27e91187100 0.0 1017631
20:00+27ese81088100 0.0 1018770
20 june, sun
sun2023:00+27ese71088100 0.1 1019795
02:00+27ese7985100 0.2 1017762
05:00+26ese71086100 0.4 1017714
08:00+26ese788476 1.5 1019662
11:00+27ese798495 0.3 1019689
14:00+27e8984100 0.6 1018588
17:00+27e81085100 0.1 1017658
20:00+27ese798789 0.3 1018735